Location: Fosso Corella
(43.9167°N, 11.5667°E)
Time: 10:42:09
(UTC+00:00)

CZ-4B R/B - Pass Details

Date: 07 June 2020
Orbit: 703 x 802 km, 98.8° (Epoch: 07 July)

Event Time Altitude Azimuth Distance (km) Brightness Sun altitude
Rises 00:54:13 0° 17° (NNE) 3,303 8.4 -19.4°
Reaches altitude 10° 00:56:34 10° 21° (NNE) 2,377 7.3 -19.2°
Maximum altitude 01:01:47 62° 102° (ESE) 904 3.9 -18.8°
Enters shadow 01:04:34 28° 173° (S) 1,479 4.5 -18.5°
